Weather History for Oshkosh, WI

Change the Weather History Date:

Friday, February 14, 2014

  Actual Average Record
Temperature  
Mean Temperature 14 °F -  
Max Temperature 21 °F 29 °F 52 °F (1954)
Min Temperature 7 °F 11 °F -16 °F (1951)
Degree Days  
Heating Degree Days 51    
Moisture  
Dew Point 5 °F    
Average Humidity 66    
Maximum Humidity 77    
Minimum Humidity 55    
Precipitation  
Precipitation 0.00 in - - ()
Sea Level Pressure  
Sea Level Pressure 29.79 in    
Wind  
Wind Speed 12 mph (WNW)    
Max Wind Speed 17 mph    
Max Gust Speed 24 mph    
Visibility 9 miles    
Events      
Averages and records for this station are not official NWS values.
T = Trace of Precipitation, MM = Missing Value Source: NWS Daily Summary

Daily Weather History Graph

Daily Weather History Graph

Search for Another Location

Airport:

Trip Planner

Search our weather history database for the weather conditions in past years. The results will help you decide how hot, cold, wet, or windy it might be!

Date:

Astronomy

Feb. 14, 2014 Rise Set
Actual Time 6:54 AM CST 5:22 PM CST
Civil Twilight 6:25 AM CST 5:52 PM CST
Nautical Twilight 5:51 AM CST 6:26 PM CST
Astronomical Twilight 5:17 AM CST 6:59 PM CST
Moon 5:28 PM CST (2/14) 6:20 AM CST (2/14)
Length of Visible Light 11h 27m
Length of Day
10h 27m
Full, 100% of the Moon is Illuminated
Feb 14
Full
Feb 14
Full
Feb 22
Last Quarter
Mar 1
New
Mar 8
First Quarter

Hourly Weather History & Observations

Time (CST) Temp. Windchill Dew Point Humidity Pressure Visibility Wind Dir Wind Speed Gust Speed Precip Events Conditions
12:51 AM 19.4 °F 4.5 °F 10.4 °F 68% 29.54 in 7.0 mi WNW 17.3 mph 24.2 mph N/A   Overcast
12:53 AM 19.9 °F 5.2 °F 10.9 °F 68% 29.60 in 7.0 mi WNW 17.3 mph 24.2 mph N/A   Overcast
1:53 AM 16.0 °F 1.7 °F 9.0 °F 74% 29.62 in 8.0 mi WNW 13.8 mph - N/A   Clear
2:53 AM 15.1 °F 2.5 °F 8.1 °F 74% 29.63 in 7.0 mi WNW 10.4 mph - N/A   Clear
3:53 AM 12.9 °F 3.8 °F 7.0 °F 77% 29.64 in 6.0 mi West 5.8 mph - N/A   Haze
4:53 AM 12.0 °F -2.0 °F 6.1 °F 77% 29.67 in 7.0 mi WNW 11.5 mph - N/A   Clear
5:53 AM 10.9 °F -2.6 °F 3.9 °F 73% 29.68 in 10.0 mi WNW 10.4 mph - N/A   Clear
6:53 AM 10.0 °F -5.2 °F 3.0 °F 73% 29.69 in 10.0 mi WNW 12.7 mph - N/A   Clear
7:53 AM 9.0 °F -5.9 °F 1.9 °F 73% 29.71 in 10.0 mi WNW 11.5 mph - N/A   Clear
8:53 AM 10.9 °F -0.8 °F 3.0 °F 70% 29.75 in 10.0 mi WNW 8.1 mph - N/A   Clear
9:53 AM 15.1 °F 1.8 °F 5.0 °F 64% 29.77 in 10.0 mi NW 11.5 mph - N/A   Clear
10:53 AM 17.1 °F 4.3 °F 5.0 °F 59% 29.79 in 10.0 mi NW 11.5 mph - N/A   Scattered Clouds
11:05 AM 17.1 °F 4.3 °F 6.1 °F 62% 29.73 in 10.0 mi NW 11.5 mph - N/A   Mostly Cloudy
11:53 AM 19.0 °F 7.5 °F 7.0 °F 59% 29.78 in 10.0 mi NW 10.4 mph - N/A   Overcast
12:38 PM 19.9 °F 8.6 °F 7.0 °F 57% 29.73 in 10.0 mi WNW 10.4 mph - N/A   Scattered Clouds
12:53 PM 21.0 °F 8.6 °F 8.1 °F 57% 29.79 in 10.0 mi WNW 12.7 mph - N/A   Clear
1:53 PM 21.9 °F 10.4 °F 9.0 °F 58% 29.80 in 10.0 mi NW 11.5 mph - N/A   Clear
2:53 PM 21.9 °F 10.4 °F 8.1 °F 55% 29.82 in 10.0 mi WNW 11.5 mph - N/A   Clear
3:53 PM 21.9 °F 10.4 °F 8.1 °F 55% 29.85 in 10.0 mi WNW 11.5 mph - N/A   Clear
4:53 PM 19.9 °F 8.6 °F 7.0 °F 57% 29.87 in 10.0 mi WNW 10.4 mph - N/A   Clear
5:53 PM 16.0 °F 3.6 °F 5.0 °F 62% 29.91 in 10.0 mi West 10.4 mph - N/A   Clear
6:53 PM 14.0 °F 1.2 °F 3.9 °F 64% 29.94 in 10.0 mi West 10.4 mph - N/A   Clear
7:53 PM 12.0 °F -1.3 °F 1.9 °F 64% 29.96 in 10.0 mi WNW 10.4 mph - N/A   Clear
8:53 PM 10.9 °F -1.8 °F 1.0 °F 64% 29.97 in 10.0 mi WNW 9.2 mph - N/A   Clear
9:53 PM 8.1 °F -5.3 °F -0.9 °F 67% 29.99 in 10.0 mi WNW 9.2 mph - N/A   Clear
10:53 PM 7.0 °F -5.7 °F -2.0 °F 67% 30.00 in 10.0 mi WNW 8.1 mph - N/A   Partly Cloudy
11:08 PM 7.0 °F -5.7 °F -0.9 °F 70% 29.92 in 10.0 mi WNW 8.1 mph - N/A   Mostly Cloudy
11:53 PM 8.1 °F -3.2 °F -0.0 °F 70% 30.03 in 10.0 mi WNW 6.9 mph - N/A   Overcast